Content
SEND FEEDBACK

Daily
Averages
Monthly
Summary
United States of America

DEER POINT, IDAHO


Home > North America > United States > Idaho
Elevation: 7160 feet     Latitude: 43 45N     Longitude: 116 06W

WEATHER
 
SELECT A DAY
Number of Records: 188,122;   Date Range: 1/1/95 - 11/27/14
 
SHARE

PRINT THIS DATA

[ ← Previous Day ]
WEATHER ALMANAC - JANUARY 23, 2013
[ Next Day → ]
[ °C ]   °F
Weather ElementAverageHighLow
Temperature10.9 °F19.9 °F (2:53 pm)1 °F (12:53 am)
Dewpoint5.8 °F12.2 °F (10:44 pm)-2.2 °F (6:38 am)
Humidity80.2 %88 % (5:53 am)68 % (1:53 pm)
Barometer30.34 in30.46 in (12:53 am)30.16 in (10:07 pm)
Wind Speed3.1 mph10.4 mph (9:53 pm)
Wind Gust19.6 mph (10:53 pm)
Weather ElementAverage
Visibility1.7 mi
Wind DirectionESE (107.9 °)

Weather ElementTotal
Precipitation---
Heating Degree Days54.6 (Base 65)
Averaged from 33 records on January 23, 2013
WEATHER CONDITIONS BREAKOUT
WIND DIRECTION BREAKOUT
WEATHER BY HOUR - JANUARY 23, 2013
[ °C ]   °F
Local TimeTemperatureDewpointHumidityBarometerVisibilityWind DirectionWind SpeedGust SpeedPrecipitationEventsConditions
12:53 AM1.0 °F-2.0 °F87 %30.46 in1.5 miCalmClear
1:53 AM3.0 °F0.0 °F87 %30.45 in1.8 miSE (130°)4.6 mphClear
2:53 AM1.9 °F-2.0 °F83 %30.45 in1.8 miCalmClear
3:53 AM1.0 °F-2.0 °F87 %30.45 in1.8 miCalmClear
4:53 AM3.0 °F0.0 °F87 %30.45 in1.5 miCalmPartly Cloudy
5:12 AM3.2 °F-0.4 °F85 %30.29 in1.8 miCalmMostly Cloudy
5:53 AM3.9 °F1.0 °F88 %30.44 in1.5 miCalmOvercast
6:38 AM1.4 °F-2.2 °F85 %30.28 in2.0 miCalmScattered Clouds
6:46 AM3.2 °F-0.4 °F85 %30.27 in1.8 miCalmPartly Cloudy
6:53 AM1.9 °F-0.9 °F88 %30.44 in1.8 miSE (140°)3.5 mphPartly Cloudy
7:53 AM3.9 °F1.0 °F88 %30.45 in1.5 miCalmClear
8:13 AM5.0 °F1.4 °F85 %30.26 in1.2 miCalmClear
8:27 AM5.0 °F1.4 °F85 %30.26 in1.0 miCalmClear
8:53 AM7.0 °F1.9 °F80 %30.42 in1.0 miCalmHaze
9:53 AM10.0 °F6.1 °F84 %30.42 in1.0 miCalmClear
10:53 AM10.9 °F6.1 °F81 %30.45 in1.0 miNNW (330°)3.5 mphHaze
11:53 AM15.1 °F9.0 °F77 %30.38 in1.2 miCalmHaze
12:53 PM17.1 °F9.0 °F71 %30.40 in1.5 miNorth (360°)4.6 mph0.00 inHaze
1:53 PM19.0 °F10.0 °F68 %30.35 in1.5 miCalmHaze
2:53 PM19.9 °F12.0 °F71 %30.32 in1.8 miNNW (330°)4.6 mphHaze
3:53 PM19.0 °F10.9 °F71 %30.33 in1.5 miWSW (240°)5.8 mphHaze
4:01 PM17.6 °F10.4 °F73 %30.18 in1.2 miWest (260°)4.6 mphHaze
4:53 PM17.1 °F10.0 °F74 %30.33 in1.2 miWest (280°)5.8 mphHaze
5:51 PM17.6 °F10.4 °F73 %30.18 in2.0 miENE (60°)5.8 mphHaze
5:53 PM17.1 °F10.0 °F74 %30.33 in2.0 miNE (50°)5.8 mphHaze
6:53 PM17.1 °F10.9 °F77 %30.34 in2.0 miCalmHaze
7:53 PM18.0 °F12.0 °F78 %30.32 in2.0 miWest (270°)8.1 mphHaze
8:53 PM16.0 °F10.9 °F81 %30.34 in2.0 miWSW (250°)5.8 mphHaze
9:53 PM16.0 °F10.9 °F81 %30.30 in2.0 miWSW (240°)10.4 mphHaze
10:07 PM15.8 °F10.4 °F79 %30.16 in3.0 miNE (40°)10.4 mphHaze
10:44 PM17.6 °F12.2 °F79 %30.17 in2.0 miWSW (240°)5.8 mphHaze
10:53 PM17.1 °F10.9 °F77 %30.32 in2.0 miWest (260°)8.1 mph19.6 mphHaze
11:53 PM18.0 °F12.0 °F78 %30.33 in2.5 miEast (80°)4.6 mphHaze
Hourly data recorded from KBOI, located miles away from Deer Point, Idaho







STORIES FROM OUR PARTNERS